Regional Weather Roundup
Issued by NWS

Home | Current Version | Previous Version | Graphics & Text | Print | Product List | Glossary On
Versions: 1 2 3 4 5 6 7 8 9 10 11 12 13 14 15 16 17 18 19 20 21 22 23 24 25 26 27 28 29 30 31 32 33 34 35 36 37 38 39 40 41 42 43 44 45 46 47 48 49 50
000
ASUS43 KOAX 181402
RWRNE

WEATHER ROUNDUP FOR NEBRASKA
NATIONAL WEATHER SERVICE OMAHA NE
800 AM CST WED JAN 18 2017

NOTES: SATELLITE DATA IS BEING USED TO AUGMENT CLOUD COVER ABOVE
       12000 FEET.
       "FAIR" INDICATES FEW OR NO CLOUDS BELOW 12,000 FEET WITH NO
       SIGNIFICANT WEATHER AND/OR OBSTRUCTIONS TO VISIBILITY.

  * THESE STATIONS DO NOT REPORT WEATHER SUCH AS RAIN...SNOW OR FOG.

NEZ001>004-019>022-054>056-181500-
NEBRASKA PANHANDLE

CITY           SKY/WX    TMP DP  RH WIND       PRES   REMARKS
SCOTTSBLUFF    CLOUDY    22  13  68 CALM      29.91S
ALLIANCE       CLOUDY    18  12  77 SW8       29.88S WCI   8
CHADRON        CLOUDY    18  12  77 SW8       29.87F WCI   8
KIMBALL        CLOUDY    24  17  75 W5        29.92F WCI  18
SIDNEY         CLOUDY    23  16  74 W9        29.92F WCI  13
$$

NEZ057>060-069>072-079>082-181500-
SOUTHWEST NEBRASKA

CITY           SKY/WX    TMP DP  RH WIND       PRES   REMARKS
NORTH PLATTE   CLOUDY    17  14  88 CALM      29.94S FOG
IMPERIAL       CLOUDY    23  19  85 NW7       29.93F WCI  15
LEXINGTON      CLOUDY    29  27  91 SW6       29.96S WCI  23
MCCOOK         CLOUDY    24  24 100 S5        29.97R WCI  18
OGALLALA       CLOUDY    17  15  90 CALM      29.93S
$$

NEZ005>010-023>029-035>040-094-181500-
NORTH CENTRAL NEBRASKA

CITY           SKY/WX    TMP DP  RH WIND       PRES   REMARKS
VALENTINE      CLOUDY    23  17  78 W10       29.84F WCI  12
AINSWORTH      CLOUDY    28  23  79 S7        29.86F WCI  21
BROKEN BOW     CLOUDY    29  26  89 S5        29.92F WCI  24
O`NEILL        CLOUDY    28  26  93 SW6       29.89F WCI  22
ORD            CLOUDY    27  23  85 S5        29.92F WCI  22
THEDFORD       CLOUDY    26  21  79 SW6       29.89F WCI  20
$$

NEZ041-046>049-061>064-073>077-083>087-181500-
SOUTH CENTRAL NEBRASKA

CITY           SKY/WX    TMP DP  RH WIND       PRES   REMARKS
GRAND ISLAND   CLOUDY    30  28  92 S7        29.97F WCI  23
AURORA         CLEAR     32  29  91 SW7       29.98F WCI  25
HASTINGS       CLOUDY    29  25  85 S5        30.00F WCI  24
HEBRON         PTCLDY    31  28  90 CALM      30.03F
HOLDREGE       CLOUDY    30  26  87 S3        29.96F
KEARNEY *      CLOUDY    27  23  86 S6        29.97F WCI  20
YORK           CLEAR     32  28  86 SW8       30.00S WCI  25
$$

NEZ011>018-030>034-042>045-181500-
NORTHEAST NEBRASKA

CITY           SKY/WX    TMP DP  RH WIND       PRES   REMARKS
NORFOLK        CLOUDY    27  24  89 SW3       29.94F
ALBION         CLOUDY    31  27  87 SE6       29.94F WCI  25
BLAIR          CLOUDY    30  28  91 S5        30.01S WCI  25
FREMONT        CLEAR     32  30  92 CALM      30.01S
TEKAMAH        CLOUDY    28  25  88 SE9       30.01S WCI  19
WAYNE          CLOUDY    30  27  89 S6        29.95S WCI  24
$$

NEZ050>053-065>068-078-088>093-181500-
SOUTHEAST NEBRASKA

CITY           SKY/WX    TMP DP  RH WIND       PRES   REMARKS
LINCOLN        CLOUDY    27  25  92 S7        30.04F WCI  19
OMAHA EPPLEY   CLOUDY    27  22  81 SE10      30.04S WCI  17
BEATRICE       CLOUDY    28  26  95 SE3       30.05F
FALLS CITY     CLEAR     28  26  92 S8        30.09F WCI  20
NEBRASKA CITY  CLOUDY    27  26  98 S10       30.06R WCI  17
PLATTSMOUTH    CLOUDY    28  24  86 S6        30.04F WCI  21
$$

NEZ044-045-051>053-067-181500-
OMAHA AREA

CITY           SKY/WX    TMP DP  RH WIND       PRES   REMARKS
OMAHA EPPLEY   CLOUDY    27  22  81 SE10      30.04S WCI  17
BLAIR          CLOUDY    30  28  91 S5        30.01S WCI  25
FREMONT        CLEAR     32  30  92 CALM      30.01S
MILLARD        CLOUDY    28  26  95 CALM      30.04S
OFFUTT AFB     CLOUDY    23  23 100 SE5       30.04S WCI  17
PLATTSMOUTH    CLOUDY    28  24  86 S6        30.04F WCI  21
WAHOO          FAIR      30  27  90 SE5       30.02S WCI  25
$$



USA.gov is the U.S. government's official web portal to all federal, state and local government web resources and services.